Time,TemperatureF,DewpointF,PressureIn,WindDirection,WindDirectionDegrees,WindSpeedMPH,WindSpeedGustMPH,Humidity,HourlyPrecipIn,Conditions,Clouds,dailyrainin,SoftwareType,DateUTC
2013-04-21 00:03:00,36.0,23.0,30.33,NW,321,0.0,4.0,59,0.00,,,0.02,,2013-04-21 04:03:00,
2013-04-21 00:12:00,35.0,23.0,30.33,NW,321,0.0,2.0,60,0.00,,,0.02,,2013-04-21 04:12:00,
2013-04-21 00:23:00,35.0,23.0,30.33,NW,321,0.0,2.0,60,0.00,,,0.02,,2013-04-21 04:23:00,
2013-04-21 00:33:00,35.0,23.0,30.34,NW,321,0.0,4.0,60,0.00,,,0.02,,2013-04-21 04:33:00,
2013-04-21 00:42:00,35.0,23.0,30.34,NW,321,0.0,4.0,60,0.00,,,0.02,,2013-04-21 04:42:00,
2013-04-21 00:53:00,35.0,23.0,30.35,NW,321,0.0,1.0,61,0.00,,,0.02,,2013-04-21 04:53:00,
2013-04-21 01:02:00,35.0,23.0,30.35,NW,321,0.0,1.0,61,0.00,,,0.02,,2013-04-21 05:02:00,
2013-04-21 01:12:00,35.0,23.0,30.35,NW,321,0.0,1.0,61,0.00,,,0.02,,2013-04-21 05:12:00,
2013-04-21 01:22:00,35.0,23.0,30.36,NW,321,0.0,0.0,61,0.00,,,0.02,,2013-04-21 05:22:00,
2013-04-21 01:32:00,34.0,22.0,30.36,NW,321,0.0,1.0,62,0.00,,,0.02,,2013-04-21 05:32:00,
2013-04-21 01:42:00,34.0,22.0,30.36,NW,321,0.0,1.0,62,0.00,,,0.02,,2013-04-21 05:42:00,
2013-04-21 01:52:00,34.0,23.0,30.37,NE,50,0.0,2.0,63,0.00,,,0.02,,2013-04-21 05:52:00,
2013-04-21 02:01:00,34.0,23.0,30.37,NE,50,0.0,0.0,64,0.00,,,0.02,,2013-04-21 06:01:00,
2013-04-21 02:12:00,34.0,23.0,30.37,NE,50,0.0,0.0,64,0.00,,,0.02,,2013-04-21 06:12:00,
2013-04-21 02:22:00,34.0,23.0,30.37,NE,50,0.0,1.0,64,0.00,,,0.02,,2013-04-21 06:22:00,
2013-04-21 02:32:00,33.0,22.0,30.37,NE,50,0.0,1.0,64,0.00,,,0.02,,2013-04-21 06:32:00,
2013-04-21 02:42:00,33.0,22.0,30.37,NE,50,0.0,1.0,64,0.00,,,0.02,,2013-04-21 06:42:00,
2013-04-21 02:52:00,33.0,23.0,30.37,NE,51,0.0,0.0,65,0.00,,,0.02,,2013-04-21 06:52:00,
2013-04-21 03:02:00,33.0,23.0,30.37,NE,46,0.0,5.0,65,0.00,,,0.02,,2013-04-21 07:02:00,
2013-04-21 03:12:00,34.0,23.0,30.37,NE,51,0.0,2.0,64,0.00,,,0.02,,2013-04-21 07:12:00,
2013-04-21 03:22:00,34.0,23.0,30.37,NE,51,0.0,2.0,64,0.00,,,0.02,,2013-04-21 07:22:00,
2013-04-21 03:32:00,33.0,23.0,30.37,NE,51,0.0,0.0,65,0.00,,,0.02,,2013-04-21 07:32:00,
2013-04-21 03:42:00,33.0,23.0,30.37,NE,51,0.0,0.0,65,0.00,,,0.02,,2013-04-21 07:42:00,
2013-04-21 03:52:00,33.0,23.0,30.38,NE,51,0.0,0.0,66,0.00,,,0.02,,2013-04-21 07:52:00,
2013-04-21 04:01:00,32.0,22.0,30.38,NE,51,0.0,4.0,67,0.00,,,0.02,,2013-04-21 08:01:00,
2013-04-21 04:12:00,32.0,22.0,30.38,NE,51,0.0,4.0,67,0.00,,,0.02,,2013-04-21 08:12:00,
2013-04-21 04:22:00,32.0,22.0,30.38,ENE,57,0.0,2.0,67,0.00,,,0.02,,2013-04-21 08:22:00,
2013-04-21 04:32:00,32.0,23.0,30.39,ESE,103,0.0,4.0,68,0.00,,,0.02,,2013-04-21 08:32:00,
2013-04-21 04:42:00,32.0,23.0,30.39,ESE,103,0.0,4.0,68,0.00,,,0.02,,2013-04-21 08:42:00,
2013-04-21 04:52:00,32.0,23.0,30.40,ENE,64,1.0,3.0,69,0.00,,,0.02,,2013-04-21 08:52:00,
2013-04-21 05:02:00,31.0,22.0,30.40,NNE,24,1.0,3.0,70,0.00,,,0.02,,2013-04-21 09:02:00,
2013-04-21 05:12:00,31.0,22.0,30.40,NNE,24,1.0,3.0,70,0.00,,,0.02,,2013-04-21 09:12:00,
2013-04-21 05:21:00,31.0,22.0,30.41,ENE,77,1.0,3.0,70,0.00,,,0.02,,2013-04-21 09:21:00,
2013-04-21 05:32:00,31.0,23.0,30.41,NE,56,1.0,4.0,71,0.00,,,0.02,,2013-04-21 09:32:00,
2013-04-21 05:43:00,31.0,23.0,30.41,NE,56,1.0,4.0,71,0.00,,,0.02,,2013-04-21 09:43:00,
2013-04-21 05:53:00,31.0,23.0,30.42,East,97,1.0,4.0,71,0.00,,,0.02,,2013-04-21 09:53:00,
2013-04-21 06:03:00,31.0,23.0,30.42,ENE,67,2.0,4.0,72,0.00,,,0.02,,2013-04-21 10:03:00,
2013-04-21 06:12:00,31.0,23.0,30.42,ENE,67,2.0,4.0,72,0.00,,,0.02,,2013-04-21 10:12:00,
2013-04-21 06:22:00,31.0,23.0,30.43,ENE,57,1.0,6.0,71,0.00,,,0.02,,2013-04-21 10:22:00,
2013-04-21 06:32:00,31.0,23.0,30.44,ENE,59,1.0,4.0,71,0.00,,,0.02,,2013-04-21 10:32:00,
2013-04-21 06:42:00,31.0,23.0,30.44,ENE,59,1.0,4.0,71,0.00,,,0.02,,2013-04-21 10:42:00,
2013-04-21 06:52:00,31.0,22.0,30.44,East,82,2.0,5.0,70,0.00,,,0.02,,2013-04-21 10:52:00,
2013-04-21 07:03:00,31.0,22.0,30.45,West,259,1.0,4.0,70,0.00,,,0.02,,2013-04-21 11:03:00,
2013-04-21 07:12:00,31.0,22.0,30.45,West,259,1.0,4.0,70,0.00,,,0.02,,2013-04-21 11:12:00,
2013-04-21 07:22:00,31.0,22.0,30.46,NE,36,1.0,4.0,70,0.00,,,0.02,,2013-04-21 11:22:00,
2013-04-21 07:34:00,31.0,22.0,30.46,East,80,1.0,4.0,70,0.00,,,0.02,,2013-04-21 11:34:00,
2013-04-21 07:42:00,31.0,22.0,30.46,East,80,1.0,4.0,70,0.00,,,0.02,,2013-04-21 11:42:00,
2013-04-21 07:52:00,32.0,23.0,30.47,ESE,103,2.0,5.0,69,0.00,,,0.02,,2013-04-21 11:52:00,
2013-04-21 08:02:00,32.0,23.0,30.47,ENE,62,1.0,7.0,68,0.00,,,0.02,,2013-04-21 12:02:00,
2013-04-21 08:12:00,32.0,23.0,30.47,ENE,62,1.0,7.0,68,0.00,,,0.02,,2013-04-21 12:12:00,
2013-04-21 08:22:00,33.0,23.0,30.48,East,86,1.0,7.0,66,0.00,,,0.02,,2013-04-21 12:22:00,
2013-04-21 08:32:00,34.0,23.0,30.49,ENE,71,0.0,6.0,64,0.00,,,0.02,,2013-04-21 12:32:00,
2013-04-21 08:42:00,34.0,23.0,30.49,ENE,71,0.0,6.0,64,0.00,,,0.02,,2013-04-21 12:42:00,
2013-04-21 08:52:00,34.0,23.0,30.49,ENE,74,3.0,8.0,64,0.00,,,0.02,,2013-04-21 12:52:00,
2013-04-21 09:01:00,35.0,23.0,30.50,ENE,71,2.0,7.0,61,0.00,,,0.02,,2013-04-21 13:01:00,
2013-04-21 09:12:00,35.0,23.0,30.50,ENE,71,2.0,7.0,61,0.00,,,0.02,,2013-04-21 13:12:00,
2013-04-21 09:22:00,36.0,23.0,30.50,East,83,1.0,7.0,59,0.00,,,0.02,,2013-04-21 13:22:00,
2013-04-21 09:32:00,37.0,24.0,30.50,ENE,65,2.0,8.0,58,0.00,,,0.02,,2013-04-21 13:32:00,
2013-04-21 09:42:00,37.0,24.0,30.50,ENE,65,2.0,8.0,58,0.00,,,0.02,,2013-04-21 13:42:00,
2013-04-21 09:52:00,38.0,25.0,30.50,ENE,74,1.0,8.0,59,0.00,,,0.02,,2013-04-21 13:52:00,
2013-04-21 10:02:00,39.0,24.0,30.50,East,88,0.0,4.0,54,0.00,,,0.01,,2013-04-21 14:02:00,
2013-04-21 10:11:00,39.0,24.0,30.50,East,88,0.0,4.0,54,0.00,,,0.01,,2013-04-21 14:11:00,
2013-04-21 10:22:00,39.0,23.0,30.51,East,101,3.0,9.0,53,0.00,,,0.01,,2013-04-21 14:22:00,
2013-04-21 10:32:00,39.0,25.0,30.51,ESE,112,3.0,10.0,56,0.00,,,0.01,,2013-04-21 14:32:00,
2013-04-21 10:42:00,39.0,25.0,30.51,ESE,112,3.0,10.0,56,0.00,,,0.01,,2013-04-21 14:42:00,
2013-04-21 10:52:00,40.0,23.0,30.51,East,98,1.0,9.0,51,0.00,,,0.01,,2013-04-21 14:52:00,
2013-04-21 11:02:00,40.0,23.0,30.51,North,5,4.0,10.0,51,0.00,,,0.01,,2013-04-21 15:02:00,
2013-04-21 11:11:00,40.0,23.0,30.51,North,5,4.0,10.0,51,0.00,,,0.01,,2013-04-21 15:11:00,
2013-04-21 11:22:00,41.0,23.0,30.51,NE,36,8.0,12.0,49,0.00,,,0.01,,2013-04-21 15:22:00,
2013-04-21 11:33:00,42.0,24.0,30.51,SSE,161,1.0,7.0,48,0.00,,,0.01,,2013-04-21 15:33:00,
2013-04-21 11:43:00,42.0,24.0,30.51,SSE,161,1.0,7.0,48,0.00,,,0.01,,2013-04-21 15:43:00,
2013-04-21 11:53:00,42.0,25.0,30.50,NE,55,4.0,10.0,51,0.00,,,0.01,,2013-04-21 15:53:00,
2013-04-21 12:03:00,43.0,23.0,30.50,SSW,206,2.0,10.0,44,0.00,,,0.01,,2013-04-21 16:03:00,
2013-04-21 12:13:00,43.0,23.0,30.50,SSW,206,2.0,10.0,44,0.00,,,0.01,,2013-04-21 16:13:00,
2013-04-21 12:23:00,43.0,20.0,30.50,NNE,22,3.0,8.0,40,0.00,,,0.01,,2013-04-21 16:23:00,
2013-04-21 12:33:00,44.0,23.0,30.50,ENE,57,2.0,10.0,43,0.00,,,0.01,,2013-04-21 16:33:00,
2013-04-21 12:42:00,44.0,23.0,30.50,ENE,57,2.0,10.0,43,0.00,,,0.01,,2013-04-21 16:42:00,
2013-04-21 12:53:00,45.0,25.0,30.50,NE,47,1.0,10.0,46,0.00,,,0.01,,2013-04-21 16:53:00,
2013-04-21 13:02:00,46.0,22.0,30.49,ENE,58,3.0,6.0,39,0.00,,,0.00,,2013-04-21 17:02:00,
2013-04-21 13:12:00,46.0,22.0,30.49,ENE,58,3.0,6.0,39,0.00,,,0.00,,2013-04-21 17:12:00,
2013-04-21 13:23:00,46.0,20.0,30.49,NE,45,1.0,7.0,35,0.00,,,0.00,,2013-04-21 17:23:00,
2013-04-21 13:32:00,47.0,23.0,30.47,SE,144,3.0,5.0,38,0.00,,,0.00,,2013-04-21 17:32:00,
2013-04-21 13:42:00,47.0,23.0,30.47,SE,144,3.0,5.0,38,0.00,,,0.00,,2013-04-21 17:42:00,
2013-04-21 13:52:00,47.0,21.0,30.47,ENE,70,1.0,5.0,35,0.00,,,0.00,,2013-04-21 17:52:00,
2013-04-21 14:02:00,47.0,20.0,30.46,SSW,208,1.0,10.0,34,0.00,,,0.00,,2013-04-21 18:02:00,
2013-04-21 14:11:00,47.0,20.0,30.46,SSW,208,1.0,10.0,34,0.00,,,0.00,,2013-04-21 18:11:00,
2013-04-21 14:22:00,49.0,21.0,30.46,ENE,63,5.0,9.0,33,0.00,,,0.00,,2013-04-21 18:22:00,
2013-04-21 14:32:00,49.0,20.0,30.45,NW,308,0.0,6.0,32,0.00,,,0.00,,2013-04-21 18:32:00,
2013-04-21 14:42:00,49.0,20.0,30.45,NW,308,0.0,6.0,32,0.00,,,0.00,,2013-04-21 18:42:00,
2013-04-21 14:52:00,49.0,19.0,30.45,North,5,4.0,12.0,30,0.00,,,0.00,,2013-04-21 18:52:00,
2013-04-21 15:02:00,49.0,19.0,30.44,SSW,209,0.0,9.0,30,0.00,,,0.00,,2013-04-21 19:02:00,
2013-04-21 15:12:00,49.0,19.0,30.44,SSW,209,0.0,9.0,30,0.00,,,0.00,,2013-04-21 19:12:00,
2013-04-21 15:22:00,50.0,23.0,30.43,East,87,3.0,8.0,35,0.00,,,0.00,,2013-04-21 19:22:00,
2013-04-21 15:32:00,51.0,21.0,30.42,WNW,290,1.0,7.0,31,0.00,,,0.00,,2013-04-21 19:32:00,
2013-04-21 15:42:00,51.0,21.0,30.42,WNW,290,1.0,7.0,31,0.00,,,0.00,,2013-04-21 19:42:00,
2013-04-21 15:52:00,52.0,22.0,30.42,North,355,7.0,9.0,31,0.00,,,0.00,,2013-04-21 19:52:00,
2013-04-21 16:02:00,52.0,22.0,30.41,SSE,157,4.0,12.0,30,0.00,,,0.00,,2013-04-21 20:02:00,
2013-04-21 16:11:00,52.0,22.0,30.41,SSE,157,4.0,12.0,30,0.00,,,0.00,,2013-04-21 20:11:00,
2013-04-21 16:22:00,52.0,23.0,30.41,NNW,334,4.0,11.0,32,0.00,,,0.00,,2013-04-21 20:22:00,
2013-04-21 16:32:00,52.0,21.0,30.39,NW,313,1.0,9.0,29,0.00,,,0.00,,2013-04-21 20:32:00,
2013-04-21 16:42:00,52.0,21.0,30.39,NW,313,1.0,9.0,29,0.00,,,0.00,,2013-04-21 20:42:00,
2013-04-21 16:52:00,53.0,22.0,30.39,NE,35,5.0,8.0,30,0.00,,,0.00,,2013-04-21 20:52:00,
2013-04-21 17:02:00,53.0,22.0,30.39,WNW,291,3.0,8.0,29,0.00,,,0.00,,2013-04-21 21:02:00,
2013-04-21 17:12:00,53.0,22.0,30.39,WNW,291,3.0,8.0,29,0.00,,,0.00,,2013-04-21 21:12:00,
2013-04-21 17:22:00,53.0,23.0,30.39,SSE,165,0.0,6.0,31,0.00,,,0.00,,2013-04-21 21:22:00,
2013-04-21 17:33:00,53.0,22.0,30.38,NNE,30,1.0,9.0,30,0.00,,,0.00,,2013-04-21 21:33:00,
2013-04-21 17:43:00,53.0,22.0,30.38,NNE,30,1.0,9.0,30,0.00,,,0.00,,2013-04-21 21:43:00,
2013-04-21 17:53:00,53.0,23.0,30.38,East,81,0.0,4.0,31,0.00,,,0.00,,2013-04-21 21:53:00,
2013-04-21 18:03:00,54.0,22.0,30.38,East,80,1.0,4.0,29,0.00,,,0.00,,2013-04-21 22:03:00,
2013-04-21 18:12:00,54.0,22.0,30.38,East,80,1.0,4.0,29,0.00,,,0.00,,2013-04-21 22:12:00,
2013-04-21 18:22:00,54.0,22.0,30.38,NNE,22,0.0,5.0,29,0.00,,,0.00,,2013-04-21 22:22:00,
2013-04-21 18:33:00,55.0,23.0,30.38,ENE,69,3.0,7.0,29,0.00,,,0.00,,2013-04-21 22:33:00,
2013-04-21 18:43:00,55.0,23.0,30.38,ENE,69,3.0,7.0,29,0.00,,,0.00,,2013-04-21 22:43:00,
2013-04-21 18:53:00,55.0,23.0,30.38,NE,51,3.0,8.0,29,0.00,,,0.00,,2013-04-21 22:53:00,
2013-04-21 19:02:00,54.0,21.0,30.38,East,79,4.0,11.0,27,0.00,,,0.00,,2013-04-21 23:02:00,
2013-04-21 19:12:00,54.0,21.0,30.38,East,79,4.0,11.0,27,0.00,,,0.00,,2013-04-21 23:12:00,
2013-04-21 19:22:00,54.0,23.0,30.38,SSE,159,2.0,9.0,30,0.00,,,0.00,,2013-04-21 23:22:00,
2013-04-21 19:32:00,53.0,25.0,30.38,NNE,29,1.0,6.0,33,0.00,,,0.00,,2013-04-21 23:32:00,
2013-04-21 19:42:00,53.0,25.0,30.38,NNE,29,1.0,6.0,33,0.00,,,0.00,,2013-04-21 23:42:00,
2013-04-21 19:52:00,51.0,24.0,30.39,East,83,1.0,5.0,34,0.00,,,0.00,,2013-04-21 23:52:00,
2013-04-21 20:01:00,50.0,23.0,30.39,SE,142,0.0,5.0,35,0.00,,,0.00,,2013-04-22 00:01:00,
2013-04-21 20:12:00,50.0,23.0,30.39,SE,142,0.0,5.0,35,0.00,,,0.00,,2013-04-22 00:12:00,
2013-04-21 20:22:00,49.0,22.0,30.39,NE,41,0.0,7.0,34,0.00,,,0.00,,2013-04-22 00:22:00,
2013-04-21 20:32:00,48.0,21.0,30.39,SSE,161,2.0,5.0,34,0.00,,,0.00,,2013-04-22 00:32:00,
2013-04-21 20:42:00,48.0,21.0,30.39,SSE,161,2.0,5.0,34,0.00,,,0.00,,2013-04-22 00:42:00,
2013-04-21 20:52:00,48.0,22.0,30.39,SE,130,1.0,7.0,35,0.00,,,0.00,,2013-04-22 00:52:00,
2013-04-21 21:01:00,47.0,21.0,30.39,NE,40,2.0,5.0,36,0.00,,,0.00,,2013-04-22 01:01:00,
2013-04-21 21:12:00,47.0,21.0,30.39,NE,40,2.0,5.0,36,0.00,,,0.00,,2013-04-22 01:12:00,
2013-04-21 21:22:00,47.0,22.0,30.40,SSW,209,1.0,5.0,37,0.00,,,0.00,,2013-04-22 01:22:00,
2013-04-21 21:32:00,46.0,21.0,30.40,NNE,32,1.0,4.0,37,0.00,,,0.00,,2013-04-22 01:32:00,
2013-04-21 21:42:00,46.0,21.0,30.40,NNE,32,1.0,4.0,37,0.00,,,0.00,,2013-04-22 01:42:00,
2013-04-21 21:52:00,46.0,22.0,30.41,SSW,204,1.0,4.0,38,0.00,,,0.00,,2013-04-22 01:52:00,
2013-04-21 22:02:00,46.0,22.0,30.41,South,175,1.0,7.0,38,0.00,,,0.00,,2013-04-22 02:02:00,
2013-04-21 22:11:00,46.0,22.0,30.41,South,175,1.0,7.0,38,0.00,,,0.00,,2013-04-22 02:11:00,
2013-04-21 22:22:00,45.0,22.0,30.41,North,5,2.0,6.0,40,0.00,,,0.00,,2013-04-22 02:22:00,
2013-04-21 22:32:00,45.0,23.0,30.41,SE,130,3.0,6.0,41,0.00,,,0.00,,2013-04-22 02:32:00,
2013-04-21 22:42:00,45.0,23.0,30.41,SE,130,3.0,6.0,41,0.00,,,0.00,,2013-04-22 02:42:00,
2013-04-21 22:52:00,45.0,24.0,30.41,SSE,162,1.0,5.0,43,0.00,,,0.00,,2013-04-22 02:52:00,
2013-04-21 23:02:00,45.0,24.0,30.41,West,277,1.0,7.0,44,0.00,,,0.00,,2013-04-22 03:02:00,
2013-04-21 23:11:00,45.0,24.0,30.41,West,277,1.0,7.0,44,0.00,,,0.00,,2013-04-22 03:11:00,
2013-04-21 23:22:00,44.0,23.0,30.41,West,276,3.0,7.0,44,0.00,,,0.00,,2013-04-22 03:22:00,
2013-04-21 23:33:00,44.0,24.0,30.41,South,175,2.0,5.0,45,0.00,,,0.00,,2013-04-22 03:33:00,
2013-04-21 23:43:00,44.0,24.0,30.41,South,175,2.0,5.0,45,0.00,,,0.00,,2013-04-22 03:43:00,
2013-04-21 23:53:00,44.0,25.0,30.40,WNW,292,1.0,6.0,46,0.00,,,0.00,,2013-04-22 03:53:00,